Location: Kaarina
(60.4167°N, 22.4167°E)
Time: 18:21:55
(UTC+03:00)

Landsat 4 - Pass Details

Date: 24 August 2019
Orbit: 507 x 523 km, 98.2° (Epoch: 17 September)

Event Time Altitude Azimuth Distance (km) Brightness Sun altitude
Rises 23:43:38 0° 19° (NNE) 2,653 8.0 -15.4°
Reaches altitude 10° 23:45:46 10° 23° (NNE) 1,764 6.9 -15.5°
Maximum altitude 23:49:32 58° 103° (ESE) 617 3.8 -15.7°
Enters shadow 23:51:06 31° 169° (S) 926 4.4 -15.8°
